PGT208 ELLX-EDDL

Flight info

Callsign PGT208
Flight time 0h 29m
Altitude 15000
Route ARCKY T853 NVO T857 BIKMU BIKMU1A
Aircraft A321/M-SDE3FGHIRWY/LB1

Departure

Time 2026-05-07 19:12
Airport Luxembourg-Findel International Airport (ELLX)

Arrival

Time 2026-05-07 19:42
Airport Düsseldorf Airport (EDDL)
Time Latitude Longitude Altitude Speed Heading
2026-05-07 18:37 49.63330 6.21558 1241 ft 0 kts 330°
2026-05-07 18:57 49.63330 6.21559 1242 ft 0 kts 330°
2026-05-07 18:57 49.63329 6.21559 1241 ft 1 kts 330°
2026-05-07 18:57 49.63317 6.21570 1240 ft 2 kts 330°
2026-05-07 18:57 49.63303 6.21580 1239 ft 2 kts 352°
2026-05-07 18:58 49.63287 6.21580 1239 ft 2 kts 12°
2026-05-07 18:58 49.63273 6.21572 1238 ft 2 kts 35°
2026-05-07 18:58 49.63263 6.21557 1238 ft 0 kts 55°
2026-05-07 18:58 49.63260 6.21548 1238 ft 1 kts 60°
2026-05-07 18:59 49.63258 6.21545 1238 ft 0 kts 59°
2026-05-07 19:03 49.63264 6.21560 1238 ft 3 kts 59°
2026-05-07 19:04 49.63270 6.21607 1237 ft 5 kts 96°
2026-05-07 19:04 49.63258 6.21656 1235 ft 1 kts 116°
2026-05-07 19:04 49.63258 6.21682 1235 ft 3 kts 47°
2026-05-07 19:04 49.63280 6.21706 1235 ft 3 kts 36°
2026-05-07 19:05 49.63300 6.21741 1235 ft 5 kts 53°
2026-05-07 19:05 49.63298 6.21804 1232 ft 9 kts 122°
2026-05-07 19:05 49.63242 6.21842 1227 ft 10 kts 143°
2026-05-07 19:05 49.63184 6.21917 1223 ft 11 kts 119°
2026-05-07 19:06 49.63205 6.22036 1220 ft 13 kts 64°
2026-05-07 19:06 49.63225 6.22107 1218 ft 14 kts 66°
2026-05-07 19:07 49.63266 6.22251 1212 ft 15 kts 66°
2026-05-07 19:07 49.63311 6.22399 1208 ft 13 kts 61°
2026-05-07 19:07 49.63358 6.22531 1206 ft 14 kts 59°
2026-05-07 19:07 49.63409 6.22671 1206 ft 14 kts 61°
2026-05-07 19:08 49.63451 6.22791 1209 ft 11 kts 61°
2026-05-07 19:08 49.63459 6.22814 1209 ft 7 kts 61°
2026-05-07 19:08 49.63486 6.22887 1211 ft 6 kts 60°
2026-05-07 19:08 49.63507 6.22943 1212 ft 4 kts 60°
2026-05-07 19:09 49.63519 6.22975 1213 ft 2 kts 60°
2026-05-07 19:09 49.63522 6.22984 1214 ft 0 kts 60°
2026-05-07 19:09 49.63544 6.23042 1216 ft 19 kts 59°
2026-05-07 19:09 49.63619 6.23246 1219 ft 21 kts 61°
2026-05-07 19:10 49.63656 6.23418 1218 ft 16 kts 114°
2026-05-07 19:10 49.63565 6.23512 1217 ft 12 kts 171°
2026-05-07 19:10 49.63518 6.23496 1217 ft 0 kts 232°
2026-05-07 19:10 49.63518 6.23494 1217 ft 0 kts 232°
2026-05-07 19:11 49.63517 6.23494 1217 ft 0 kts 232°
2026-05-07 19:11 49.63517 6.23493 1217 ft 2 kts 233°
2026-05-07 19:11 49.63438 6.23295 1217 ft 55 kts 229°
2026-05-07 19:12 49.63120 6.22437 1203 ft 126 kts 240°
2026-05-07 19:12 49.62589 6.21007 1252 ft 179 kts 240°
2026-05-07 19:12 49.61946 6.19261 1736 ft 192 kts 239°
2026-05-07 19:12 49.61313 6.17500 2521 ft 193 kts 242°
2026-05-07 19:13 49.60690 6.15680 3341 ft 191 kts 241°
2026-05-07 19:13 49.60068 6.13937 4070 ft 187 kts 240°
2026-05-07 19:13 49.59425 6.12240 4820 ft 181 kts 239°
2026-05-07 19:13 49.58795 6.10626 5538 ft 174 kts 238°
2026-05-07 19:14 49.58198 6.09095 6228 ft 165 kts 239°
2026-05-07 19:14 49.57629 6.07569 6919 ft 168 kts 239°
2026-05-07 19:14 49.57058 6.05999 7634 ft 171 kts 243°
2026-05-07 19:14 49.56818 6.04200 8041 ft 183 kts 283°
2026-05-07 19:15 49.57502 6.02517 8359 ft 198 kts 324°
2026-05-07 19:15 49.58835 6.01875 8681 ft 214 kts 359°
2026-05-07 19:15 49.60373 6.01949 9056 ft 230 kts
2026-05-07 19:15 49.62035 6.01942 9366 ft 250 kts 358°
2026-05-07 19:16 49.63833 6.01894 9825 ft 265 kts 358°
2026-05-07 19:16 49.65674 6.01837 10588 ft 267 kts 358°
2026-05-07 19:16 49.67524 6.01778 11356 ft 269 kts 358°
2026-05-07 19:16 49.69402 6.01717 12098 ft 272 kts 358°
2026-05-07 19:17 49.71305 6.01656 12830 ft 275 kts 358°
2026-05-07 19:17 49.73206 6.01596 13547 ft 277 kts 358°
2026-05-07 19:17 49.75119 6.01536 14271 ft 279 kts 358°
2026-05-07 19:17 49.77068 6.01476 14804 ft 282 kts 357°
2026-05-07 19:18 49.79046 6.01505 15035 ft 285 kts
2026-05-07 19:18 49.80957 6.02188 15051 ft 285 kts 15°
2026-05-07 19:18 49.82848 6.03130 15050 ft 285 kts 17°
2026-05-07 19:18 49.84730 6.04078 15050 ft 285 kts 17°
2026-05-07 19:19 49.86633 6.05002 15051 ft 285 kts 16°
2026-05-07 19:19 49.88529 6.05892 15052 ft 285 kts 15°
2026-05-07 19:19 49.90429 6.06762 15052 ft 284 kts 15°
2026-05-07 19:19 49.92313 6.07614 15048 ft 284 kts 15°
2026-05-07 19:20 49.94207 6.08462 15048 ft 284 kts 15°
2026-05-07 19:20 49.96107 6.09311 15052 ft 284 kts 15°
2026-05-07 19:20 49.97988 6.10148 15049 ft 284 kts 14°
2026-05-07 19:20 49.99892 6.10996 15050 ft 284 kts 14°
2026-05-07 19:21 50.01792 6.11842 15045 ft 284 kts 14°
2026-05-07 19:21 50.03678 6.12682 15045 ft 284 kts 14°
2026-05-07 19:21 50.05600 6.13538 15046 ft 285 kts 14°
2026-05-07 19:21 50.07485 6.14379 15047 ft 285 kts 14°
2026-05-07 19:22 50.09390 6.15228 15046 ft 285 kts 14°
2026-05-07 19:22 50.11310 6.16085 15044 ft 285 kts 14°
2026-05-07 19:22 50.13215 6.16902 15045 ft 284 kts 14°
2026-05-07 19:22 50.15111 6.17708 15045 ft 284 kts 14°
2026-05-07 19:23 50.17012 6.18551 15043 ft 284 kts 15°
2026-05-07 19:23 50.18901 6.19409 15044 ft 284 kts 15°
2026-05-07 19:23 50.20792 6.20276 15044 ft 284 kts 15°
2026-05-07 19:23 50.22713 6.21155 15043 ft 284 kts 15°
2026-05-07 19:24 50.24593 6.22012 15044 ft 284 kts 15°
2026-05-07 19:24 50.26481 6.22871 15043 ft 284 kts 15°
2026-05-07 19:24 50.28390 6.23736 15044 ft 284 kts 14°
2026-05-07 19:24 50.30279 6.24591 15046 ft 284 kts 14°
2026-05-07 19:25 50.32184 6.25450 15045 ft 284 kts 14°
2026-05-07 19:25 50.34077 6.26307 15043 ft 284 kts 15°
2026-05-07 19:25 50.35985 6.27173 15042 ft 285 kts 15°
2026-05-07 19:25 50.37849 6.28198 15029 ft 283 kts 20°
2026-05-07 19:26 50.39674 6.29333 14780 ft 280 kts 20°
2026-05-07 19:26 50.41475 6.30467 14369 ft 281 kts 20°
2026-05-07 19:26 50.43285 6.31597 13991 ft 280 kts 20°
2026-05-07 19:26 50.45093 6.32714 13635 ft 279 kts 20°
2026-05-07 19:27 50.46899 6.33823 13282 ft 277 kts 20°
2026-05-07 19:27 50.48686 6.34915 13049 ft 273 kts 20°
2026-05-07 19:27 50.50463 6.36000 13044 ft 275 kts 20°
2026-05-07 19:27 50.52243 6.37087 13041 ft 276 kts 20°
2026-05-07 19:28 50.54028 6.38177 13038 ft 276 kts 20°
2026-05-07 19:28 50.55820 6.39272 13038 ft 276 kts 20°
2026-05-07 19:28 50.57602 6.40361 13046 ft 276 kts 20°
2026-05-07 19:28 50.59400 6.41460 12561 ft 286 kts 20°
2026-05-07 19:29 50.61321 6.42632 11601 ft 306 kts 20°
2026-05-07 19:29 50.63310 6.43848 10853 ft 317 kts 20°
2026-05-07 19:29 50.65367 6.45108 10441 ft 313 kts 20°
2026-05-07 19:29 50.67354 6.46329 10292 ft 302 kts 20°
2026-05-07 19:30 50.69262 6.47502 10156 ft 290 kts 20°
2026-05-07 19:30 50.71108 6.48637 10022 ft 279 kts 20°
2026-05-07 19:30 50.72901 6.49740 9884 ft 268 kts 20°
2026-05-07 19:30 50.74613 6.50793 9754 ft 260 kts 20°
2026-05-07 19:31 50.76295 6.51828 9556 ft 260 kts 20°
2026-05-07 19:31 50.77969 6.52860 9382 ft 259 kts 20°
2026-05-07 19:31 50.79636 6.53887 9208 ft 258 kts 20°
2026-05-07 19:31 50.81303 6.54917 9033 ft 256 kts 20°
2026-05-07 19:32 50.82956 6.55937 8857 ft 255 kts 20°
2026-05-07 19:32 50.84616 6.56963 8682 ft 254 kts 20°
2026-05-07 19:32 50.86267 6.57992 8508 ft 253 kts 20°
2026-05-07 19:32 50.87881 6.59017 8335 ft 252 kts 21°
2026-05-07 19:33 50.89527 6.60039 8159 ft 251 kts 20°
2026-05-07 19:33 50.91134 6.61027 7987 ft 250 kts 20°
2026-05-07 19:33 50.92797 6.61858 7801 ft 248 kts
2026-05-07 19:33 50.94490 6.61466 7628 ft 248 kts 335°
2026-05-07 19:34 50.95970 6.60062 7462 ft 247 kts 325°
2026-05-07 19:34 50.97336 6.58478 7307 ft 247 kts 323°
2026-05-07 19:34 50.98720 6.56811 7128 ft 246 kts 323°
2026-05-07 19:34 51.00062 6.55179 7061 ft 245 kts 323°
2026-05-07 19:35 51.01408 6.53537 7054 ft 238 kts 320°
2026-05-07 19:35 51.02705 6.51968 7062 ft 233 kts 322°
2026-05-07 19:35 51.03981 6.50369 7061 ft 232 kts 323°
2026-05-07 19:35 51.05244 6.48824 7064 ft 232 kts 323°
2026-05-07 19:36 51.06526 6.47253 6949 ft 227 kts 323°
2026-05-07 19:36 51.07757 6.45739 6597 ft 229 kts 323°
2026-05-07 19:36 51.09175 6.44486 5948 ft 241 kts 347°
2026-05-07 19:36 51.10844 6.44555 5501 ft 239 kts 17°
2026-05-07 19:37 51.12335 6.45415 5232 ft 224 kts 22°
2026-05-07 19:37 51.13727 6.46407 4833 ft 218 kts 30°
2026-05-07 19:37 51.14989 6.47699 4386 ft 216 kts 41°
2026-05-07 19:37 51.16014 6.49443 3832 ft 221 kts 51°
2026-05-07 19:38 51.16959 6.51379 3251 ft 219 kts 53°
2026-05-07 19:38 51.17781 6.53346 2989 ft 211 kts 65°
2026-05-07 19:38 51.18289 6.55521 2996 ft 212 kts 71°
2026-05-07 19:38 51.18718 6.57797 2988 ft 212 kts 72°
2026-05-07 19:39 51.19176 6.60009 2975 ft 211 kts 60°
2026-05-07 19:39 51.20126 6.61767 2989 ft 211 kts 40°
2026-05-07 19:39 51.21344 6.63093 2793 ft 214 kts 29°
2026-05-07 19:39 51.22560 6.64368 2188 ft 212 kts 40°
2026-05-07 19:40 51.23660 6.65995 1386 ft 217 kts 51°
2026-05-07 19:40 51.24493 6.67899 1014 ft 204 kts 57°
2026-05-07 19:40 51.25274 6.69641 965 ft 179 kts 54°
2026-05-07 19:40 51.25985 6.71127 861 ft 159 kts 53°
2026-05-07 19:41 51.26651 6.72469 600 ft 149 kts 52°
2026-05-07 19:41 51.27255 6.73705 418 ft 137 kts 54°
2026-05-07 19:41 51.27818 6.74909 245 ft 135 kts 53°
2026-05-07 19:41 51.28387 6.76095 121 ft 125 kts 53°
2026-05-07 19:42 51.28739 6.76834 125 ft 54 kts 53°
2026-05-07 19:42 51.28930 6.77237 123 ft 24 kts 54°
2026-05-07 19:42 51.29011 6.77440 123 ft 17 kts 71°
2026-05-07 19:42 51.28999 6.77557 123 ft 9 kts 113°
2026-05-07 19:43 51.28956 6.77626 123 ft 7 kts 143°
2026-05-07 19:43 51.28906 6.77638 123 ft 7 kts 211°
2026-05-07 19:43 51.28863 6.77558 123 ft 11 kts 232°
2026-05-07 19:43 51.28810 6.77448 124 ft 13 kts 232°